owner,sensor,date,latitude,longitude,vertical_datum,sea_water_practical_salinity,qcFlag 
SCCF RECON,ioos:station:SCCF:11:1,2011-05-01T00:00:00Z,26.4679,-82.0631,1.27,35.77,1111122 
SCCF RECON,ioos:station:SCCF:11:1,2011-05-01T01:00:00Z,26.4679,-82.0631,1.38,35.59,1111122 
SCCF RECON,ioos:station:SCCF:11:1,2011-05-01T02:00:00Z,26.4679,-82.0631,1.53,35.53,1111122 
SCCF RECON,ioos:station:SCCF:11:1,2011-05-01T03:00:00Z,26.4679,-82.0631,1.63,35.5,1111122 
SCCF RECON,ioos:station:SCCF:11:1,2011-05-01T04:00:00Z,26.4679,-82.0631,1.71,35.54,1111122 
SCCF RECON,ioos:station:SCCF:11:1,2011-05-01T05:00:00Z,26.4679,-82.0631,1.76,35.56,1111122 
SCCF RECON,ioos:station:SCCF:11:1,2011-05-01T06:00:00Z,26.4679,-82.0631,1.74,35.53,1111122 
SCCF RECON,ioos:station:SCCF:11:1,2011-05-01T07:00:00Z,26.4679,-82.0631,1.639,35.55,1111122 
SCCF RECON,ioos:station:SCCF:11:1,2011-05-01T08:00:00Z,26.4679,-82.0631,1.532,35.6,1111122 
SCCF RECON,ioos:station:SCCF:11:1,2011-05-01T09:00:00Z,26.4679,-82.0631,1.5,35.65,1111122 
SCCF RECON,ioos:station:SCCF:11:1,2011-05-01T10:00:00Z,26.4679,-82.0631,1.43,35.64,1111122 
SCCF RECON,ioos:station:SCCF:11:1,2011-05-01T11:00:00Z,26.4679,-82.0631,1.41,35.74,1111122 
SCCF RECON,ioos:station:SCCF:11:1,2011-05-01T12:00:00Z,26.4679,-82.0631,1.489,35.64,1111122 
SCCF RECON,ioos:station:SCCF:11:1,2011-05-01T13:00:00Z,26.4679,-82.0631,1.64,35.57,1111122 
SCCF RECON,ioos:station:SCCF:11:1,2011-05-01T14:00:00Z,26.4679,-82.0631,1.779,35.56,1111122 
SCCF RECON,ioos:station:SCCF:11:1,2011-05-01T15:00:00Z,26.4679,-82.0631,1.86,35.5,1111122 
SCCF RECON,ioos:station:SCCF:11:1,2011-05-01T16:00:00Z,26.4679,-82.0631,1.94,35.48,1111122 
SCCF RECON,ioos:station:SCCF:11:1,2011-05-01T17:00:00Z,26.4679,-82.0631,1.957,35.43,1111122 
SCCF RECON,ioos:station:SCCF:11:1,2011-05-01T18:00:00Z,26.4679,-82.0631,1.83,35.41,1111122 
SCCF RECON,ioos:station:SCCF:11:1,2011-05-01T19:00:00Z,26.4679,-82.0631,1.687,35.57,1111122 
SCCF RECON,ioos:station:SCCF:11:1,2011-05-01T20:00:00Z,26.4679,-82.0631,1.56,35.64,1111122 
SCCF RECON,ioos:station:SCCF:11:1,2011-05-01T21:00:00Z,26.4679,-82.0631,1.46,35.68,1111122 
SCCF RECON,ioos:station:SCCF:11:1,2011-05-01T22:00:00Z,26.4679,-82.0631,1.378,35.74,1111122 
SCCF RECON,ioos:station:SCCF:11:1,2011-05-01T23:00:00Z,26.4679,-82.0631,1.3,35.79,1111122 
SCCF RECON,ioos:station:SCCF:11:1,2011-05-02T00:00:00Z,26.4679,-82.0631,1.27,35.82,1111122 
SCCF RECON,ioos:station:SCCF:11:1,2011-05-02T01:00:00Z,26.4679,-82.0631,1.36,35.77,1111122 
SCCF RECON,ioos:station:SCCF:11:1,2011-05-02T02:00:00Z,26.4679,-82.0631,1.508,35.72,1111122 
SCCF RECON,ioos:station:SCCF:11:1,2011-05-02T03:00:00Z,26.4679,-82.0631,1.649,35.67,1111122 
SCCF RECON,ioos:station:SCCF:11:1,2011-05-02T04:00:00Z,26.4679,-82.0631,1.79,35.63,1111122 
SCCF RECON,ioos:station:SCCF:11:1,2011-05-02T05:00:00Z,26.4679,-82.0631,1.848,35.64,1111122 
SCCF RECON,ioos:station:SCCF:11:1,2011-05-02T06:00:00Z,26.4679,-82.0631,1.81,35.64,1111122 
SCCF RECON,ioos:station:SCCF:11:1,2011-05-02T07:00:00Z,26.4679,-82.0631,1.742,35.57,1111122 
SCCF RECON,ioos:station:SCCF:11:1,2011-05-02T08:00:00Z,26.4679,-82.0631,1.664,35.6,1111122 
SCCF RECON,ioos:station:SCCF:11:1,2011-05-02T09:00:00Z,26.4679,-82.0631,1.58,35.7,1111122 
SCCF RECON,ioos:station:SCCF:11:1,2011-05-02T10:00:00Z,26.4679,-82.0631,1.518,35.76,1111122 
SCCF RECON,ioos:station:SCCF:11:1,2011-05-02T11:00:00Z,26.4679,-82.0631,1.501,35.7,1111122 
SCCF RECON,ioos:station:SCCF:11:1,2011-05-02T12:00:00Z,26.4679,-82.0631,1.577,35.58,1111122 
SCCF RECON,ioos:station:SCCF:11:1,2011-05-02T13:00:00Z,26.4679,-82.0631,1.72,35.58,1111122 
SCCF RECON,ioos:station:SCCF:11:1,2011-05-02T14:00:00Z,26.4679,-82.0631,1.854,35.56,1111122 
SCCF RECON,ioos:station:SCCF:11:1,2011-05-02T15:00:00Z,26.4679,-82.0631,1.957,35.54,1111122 
SCCF RECON,ioos:station:SCCF:11:1,2011-05-02T16:00:00Z,26.4679,-82.0631,2.011,35.52,1111122 
SCCF RECON,ioos:station:SCCF:11:1,2011-05-02T17:00:00Z,26.4679,-82.0631,2.011,35.51,1111122 
SCCF RECON,ioos:station:SCCF:11:1,2011-05-02T18:00:00Z,26.4679,-82.0631,1.96,35.51,1111122 
SCCF RECON,ioos:station:SCCF:11:1,2011-05-02T19:00:00Z,26.4679,-82.0631,1.83,35.56,1111122 
SCCF RECON,ioos:station:SCCF:11:1,2011-05-02T20:00:00Z,26.4679,-82.0631,1.68,35.67,1111122 
SCCF RECON,ioos:station:SCCF:11:1,2011-05-02T21:00:00Z,26.4679,-82.0631,1.54,35.77,1111122 
SCCF RECON,ioos:station:SCCF:11:1,2011-05-02T22:00:00Z,26.4679,-82.0631,1.43,35.8,1111122 
SCCF RECON,ioos:station:SCCF:11:1,2011-05-02T23:00:00Z,26.4679,-82.0631,1.314,35.84,1111122 
SCCF RECON,ioos:station:SCCF:11:1,2011-05-03T00:00:00Z,26.4679,-82.0631,1.24,35.91,1111122 
SCCF RECON,ioos:station:SCCF:11:1,2011-05-03T01:00:00Z,26.4679,-82.0631,1.26,35.9,1111122 
SCCF RECON,ioos:station:SCCF:11:1,2011-05-03T02:00:00Z,26.4679,-82.0631,1.385,35.73,1111122 
SCCF RECON,ioos:station:SCCF:11:1,2011-05-03T03:00:00Z,26.4679,-82.0631,1.522,35.74,1111122 
SCCF RECON,ioos:station:SCCF:11:1,2011-05-03T04:00:00Z,26.4679,-82.0631,1.651,35.71,1111122 
SCCF RECON,ioos:station:SCCF:11:1,2011-05-03T05:00:00Z,26.4679,-82.0631,1.711,35.69,1111122 
SCCF RECON,ioos:station:SCCF:11:1,2011-05-03T06:00:00Z,26.4679,-82.0631,1.719,35.71,1111122 
SCCF RECON,ioos:station:SCCF:11:1,2011-05-03T07:00:00Z,26.4679,-82.0631,1.72,35.68,1111122 
SCCF RECON,ioos:station:SCCF:11:1,2011-05-03T08:00:00Z,26.4679,-82.0631,1.69,35.71,1111122 
SCCF RECON,ioos:station:SCCF:11:1,2011-05-03T09:00:00Z,26.4679,-82.0631,1.595,35.71,1111122 
SCCF RECON,ioos:station:SCCF:11:1,2011-05-03T10:00:00Z,26.4679,-82.0631,1.526,35.8,1111122 
SCCF RECON,ioos:station:SCCF:11:1,2011-05-03T11:00:00Z,26.4679,-82.0631,1.542,35.78,1111122 
SCCF RECON,ioos:station:SCCF:11:1,2011-05-03T12:00:00Z,26.4679,-82.0631,1.623,35.69,1111122 
SCCF RECON,ioos:station:SCCF:11:1,2011-05-03T13:00:00Z,26.4679,-82.0631,1.707,35.64,1111122 
SCCF RECON,ioos:station:SCCF:11:1,2011-05-03T14:00:00Z,26.4679,-82.0631,1.8,35.64,1111122 
SCCF RECON,ioos:station:SCCF:11:1,2011-05-03T15:00:00Z,26.4679,-82.0631,1.92,35.62,1111122 
SCCF RECON,ioos:station:SCCF:11:1,2011-05-03T16:00:00Z,26.4679,-82.0631,2.01,35.6,1111122 
SCCF RECON,ioos:station:SCCF:11:1,2011-05-03T17:00:00Z,26.4679,-82.0631,2.05,35.59,1111122 
SCCF RECON,ioos:station:SCCF:11:1,2011-05-03T18:00:00Z,26.4679,-82.0631,2.04,35.62,1111122 
SCCF RECON,ioos:station:SCCF:11:1,2011-05-03T19:00:00Z,26.4679,-82.0631,1.956,35.68,1111122 
SCCF RECON,ioos:station:SCCF:11:1,2011-05-03T20:00:00Z,26.4679,-82.0631,1.8,35.66,1111122 
SCCF RECON,ioos:station:SCCF:11:1,2011-05-03T21:00:00Z,26.4679,-82.0631,1.65,35.79,1111122 
SCCF RECON,ioos:station:SCCF:11:1,2011-05-03T22:00:00Z,26.4679,-82.0631,1.519,35.84,1111122 
SCCF RECON,ioos:station:SCCF:11:1,2011-05-03T23:00:00Z,26.4679,-82.0631,1.39,35.91,1111122 
SCCF RECON,ioos:station:SCCF:11:1,2011-05-04T00:00:00Z,26.4679,-82.0631,1.3,35.98,1111122 
SCCF RECON,ioos:station:SCCF:11:1,2011-05-04T01:00:00Z,26.4679,-82.0631,1.26,36.0,1111122 
SCCF RECON,ioos:station:SCCF:11:1,2011-05-04T02:00:00Z,26.4679,-82.0631,1.32,35.95,1111122 
SCCF RECON,ioos:station:SCCF:11:1,2011-05-04T03:00:00Z,26.4679,-82.0631,1.476,35.85,1111122 
SCCF RECON,ioos:station:SCCF:11:1,2011-05-04T04:00:00Z,26.4679,-82.0631,1.631,35.9,1111122 
SCCF RECON,ioos:station:SCCF:11:1,2011-05-04T05:00:00Z,26.4679,-82.0631,1.77,35.86,1111122 
SCCF RECON,ioos:station:SCCF:11:1,2011-05-04T06:00:00Z,26.4679,-82.0631,1.87,35.79,1111122 
SCCF RECON,ioos:station:SCCF:11:1,2011-05-04T07:00:00Z,26.4679,-82.0631,1.9,35.77,1111122 
SCCF RECON,ioos:station:SCCF:11:1,2011-05-04T08:00:00Z,26.4679,-82.0631,1.84,35.77,1111122 
SCCF RECON,ioos:station:SCCF:11:1,2011-05-04T09:00:00Z,26.4679,-82.0631,1.76,35.79,1111122 
SCCF RECON,ioos:station:SCCF:11:1,2011-05-04T10:00:00Z,26.4679,-82.0631,1.689,35.8,1111122 
SCCF RECON,ioos:station:SCCF:11:1,2011-05-04T11:00:00Z,26.4679,-82.0631,1.66,35.83,1111122 
SCCF RECON,ioos:station:SCCF:11:1,2011-05-04T12:00:00Z,26.4679,-82.0631,1.64,35.85,1111122 
SCCF RECON,ioos:station:SCCF:11:1,2011-05-04T13:00:00Z,26.4679,-82.0631,1.663,35.84,1111122 
SCCF RECON,ioos:station:SCCF:11:1,2011-05-04T14:00:00Z,26.4679,-82.0631,1.774,35.78,1111122 
SCCF RECON,ioos:station:SCCF:11:1,2011-05-04T15:00:00Z,26.4679,-82.0631,1.9,35.74,1111122 
SCCF RECON,ioos:station:SCCF:11:1,2011-05-04T16:00:00Z,26.4679,-82.0631,2.001,35.69,1111122 
SCCF RECON,ioos:station:SCCF:11:1,2011-05-04T17:00:00Z,26.4679,-82.0631,2.04,35.72,1111122 
SCCF RECON,ioos:station:SCCF:11:1,2011-05-04T18:00:00Z,26.4679,-82.0631,2.04,35.74,1111122 
SCCF RECON,ioos:station:SCCF:11:1,2011-05-04T19:00:00Z,26.4679,-82.0631,1.971,35.67,1111122 
SCCF RECON,ioos:station:SCCF:11:1,2011-05-04T20:00:00Z,26.4679,-82.0631,1.856,35.74,1111122 
SCCF RECON,ioos:station:SCCF:11:1,2011-05-04T21:00:00Z,26.4679,-82.0631,1.71,35.84,1111122 
SCCF RECON,ioos:station:SCCF:11:1,2011-05-04T22:00:00Z,26.4679,-82.0631,1.565,35.91,1111122 
SCCF RECON,ioos:station:SCCF:11:1,2011-05-04T23:00:00Z,26.4679,-82.0631,1.43,35.96,1111122 
SCCF RECON,ioos:station:SCCF:11:1,2011-05-05T00:00:00Z,26.4679,-82.0631,1.299,35.98,1111122 
SCCF RECON,ioos:station:SCCF:11:1,2011-05-05T01:00:00Z,26.4679,-82.0631,1.2,36.08,1111122 
SCCF RECON,ioos:station:SCCF:11:1,2011-05-05T02:00:00Z,26.4679,-82.0631,1.17,36.01,1111122 
SCCF RECON,ioos:station:SCCF:11:1,2011-05-05T03:00:00Z,26.4679,-82.0631,1.26,36.02,1111122 
SCCF RECON,ioos:station:SCCF:11:1,2011-05-05T04:00:00Z,26.4679,-82.0631,1.402,35.97,1111122 
SCCF RECON,ioos:station:SCCF:11:1,2011-05-05T05:00:00Z,26.4679,-82.0631,1.548,35.95,1111122 
SCCF RECON,ioos:station:SCCF:11:1,2011-05-05T06:00:00Z,26.4679,-82.0631,1.67,35.91,1111122 
SCCF RECON,ioos:station:SCCF:11:1,2011-05-05T07:00:00Z,26.4679,-82.0631,1.743,35.85,1111122 
SCCF RECON,ioos:station:SCCF:11:1,2011-05-05T08:00:00Z,26.4679,-82.0631,1.77,35.69,1111122 
SCCF RECON,ioos:station:SCCF:11:1,2011-05-05T09:00:00Z,26.4679,-82.0631,1.702,35.76,1111122 
SCCF RECON,ioos:station:SCCF:11:1,2011-05-05T10:00:00Z,26.4679,-82.0631,1.631,35.73,1111122 
SCCF RECON,ioos:station:SCCF:11:1,2011-05-05T11:00:00Z,26.4679,-82.0631,1.577,35.83,1111122 
SCCF RECON,ioos:station:SCCF:11:1,2011-05-05T12:00:00Z,26.4679,-82.0631,1.549,35.84,1111122 
SCCF RECON,ioos:station:SCCF:11:1,2011-05-05T13:00:00Z,26.4679,-82.0631,1.54,35.85,1111122 
SCCF RECON,ioos:station:SCCF:11:1,2011-05-05T14:00:00Z,26.4679,-82.0631,1.602,35.84,1111122 
SCCF RECON,ioos:station:SCCF:11:1,2011-05-05T15:00:00Z,26.4679,-82.0631,1.711,35.83,1111122 
SCCF RECON,ioos:station:SCCF:11:1,2011-05-05T16:00:00Z,26.4679,-82.0631,1.839,35.82,1111122 
SCCF RECON,ioos:station:SCCF:11:1,2011-05-05T17:00:00Z,26.4679,-82.0631,1.93,35.79,1111122 
SCCF RECON,ioos:station:SCCF:11:1,2011-05-05T18:00:00Z,26.4679,-82.0631,1.984,35.75,1111122 
SCCF RECON,ioos:station:SCCF:11:1,2011-05-05T19:00:00Z,26.4679,-82.0631,2.0,35.76,1111122 
SCCF RECON,ioos:station:SCCF:11:1,2011-05-05T20:00:00Z,26.4679,-82.0631,1.937,35.7,1111122 
SCCF RECON,ioos:station:SCCF:11:1,2011-05-05T21:00:00Z,26.4679,-82.0631,1.79,35.78,1111122 
SCCF RECON,ioos:station:SCCF:11:1,2011-05-05T22:00:00Z,26.4679,-82.0631,1.692,35.87,1111122 
SCCF RECON,ioos:station:SCCF:11:1,2011-05-05T23:00:00Z,26.4679,-82.0631,1.543,35.59,1111122 
SCCF RECON,ioos:station:SCCF:11:1,2011-05-06T00:00:00Z,26.4679,-82.0631,1.377,35.44,1111122 
SCCF RECON,ioos:station:SCCF:11:1,2011-05-06T01:00:00Z,26.4679,-82.0631,1.258,35.17,1111122 
SCCF RECON,ioos:station:SCCF:11:1,2011-05-06T02:00:00Z,26.4679,-82.0631,1.2,32.62,1111122 
SCCF RECON,ioos:station:SCCF:11:1,2011-05-06T03:00:00Z,26.4679,-82.0631,1.24,33.34,1111122 
SCCF RECON,ioos:station:SCCF:11:1,2011-05-06T04:00:00Z,26.4679,-82.0631,1.34,34.6,1111122 
SCCF RECON,ioos:station:SCCF:11:1,2011-05-06T05:00:00Z,26.4679,-82.0631,1.48,34.21,1111122 
SCCF RECON,ioos:station:SCCF:11:1,2011-05-06T06:00:00Z,26.4679,-82.0631,1.61,34.52,1111122 
SCCF RECON,ioos:station:SCCF:11:1,2011-05-06T07:00:00Z,26.4679,-82.0631,1.71,34.53,1111122 
SCCF RECON,ioos:station:SCCF:11:1,2011-05-06T08:00:00Z,26.4679,-82.0631,1.78,34.33,1111122 
SCCF RECON,ioos:station:SCCF:11:1,2011-05-06T09:00:00Z,26.4679,-82.0631,1.8,34.44,1111122 
SCCF RECON,ioos:station:SCCF:11:1,2011-05-06T10:00:00Z,26.4679,-82.0631,1.76,34.52,1111122 
SCCF RECON,ioos:station:SCCF:11:1,2011-05-06T11:00:00Z,26.4679,-82.0631,1.701,34.55,1111122 
SCCF RECON,ioos:station:SCCF:11:1,2011-05-06T12:00:00Z,26.4679,-82.0631,1.67,34.2,1111122 
SCCF RECON,ioos:station:SCCF:11:1,2011-05-06T13:00:00Z,26.4679,-82.0631,1.67,34.26,1111122 
SCCF RECON,ioos:station:SCCF:11:1,2011-05-06T14:00:00Z,26.4679,-82.0631,1.71,33.92,1111122 
SCCF RECON,ioos:station:SCCF:11:1,2011-05-06T15:00:00Z,26.4679,-82.0631,1.81,33.85,1111122 
SCCF RECON,ioos:station:SCCF:11:1,2011-05-06T16:00:00Z,26.4679,-82.0631,1.91,33.91,1111122 
SCCF RECON,ioos:station:SCCF:11:1,2011-05-06T17:00:00Z,26.4679,-82.0631,2.005,34.14,1111122 
SCCF RECON,ioos:station:SCCF:11:1,2011-05-06T18:00:00Z,26.4679,-82.0631,2.05,34.06,1111122 
SCCF RECON,ioos:station:SCCF:11:1,2011-05-06T19:00:00Z,26.4679,-82.0631,2.071,34.28,1111122 
SCCF RECON,ioos:station:SCCF:11:1,2011-05-06T20:00:00Z,26.4679,-82.0631,2.01,34.22,1111122 
SCCF RECON,ioos:station:SCCF:11:1,2011-05-06T21:00:00Z,26.4679,-82.0631,1.92,33.81,1111122 
SCCF RECON,ioos:station:SCCF:11:1,2011-05-06T22:00:00Z,26.4679,-82.0631,1.807,33.79,1111122 
SCCF RECON,ioos:station:SCCF:11:1,2011-05-06T23:00:00Z,26.4679,-82.0631,1.617,33.65,1111122 
SCCF RECON,ioos:station:SCCF:11:1,2011-05-07T00:00:00Z,26.4679,-82.0631,1.48,33.6,1111122 
SCCF RECON,ioos:station:SCCF:11:1,2011-05-07T01:00:00Z,26.4679,-82.0631,1.36,33.91,1111122 
SCCF RECON,ioos:station:SCCF:11:1,2011-05-07T02:00:00Z,26.4679,-82.0631,1.26,33.02,1111122 
SCCF RECON,ioos:station:SCCF:11:1,2011-05-07T03:00:00Z,26.4679,-82.0631,1.21,33.02,1111122 
SCCF RECON,ioos:station:SCCF:11:1,2011-05-07T04:00:00Z,26.4679,-82.0631,1.27,33.77,1111122 
SCCF RECON,ioos:station:SCCF:11:1,2011-05-07T05:00:00Z,26.4679,-82.0631,1.405,33.85,1111122 
SCCF RECON,ioos:station:SCCF:11:1,2011-05-07T06:00:00Z,26.4679,-82.0631,1.551,34.27,1111122 
SCCF RECON,ioos:station:SCCF:11:1,2011-05-07T07:00:00Z,26.4679,-82.0631,1.67,34.15,1111122 
SCCF RECON,ioos:station:SCCF:11:1,2011-05-07T08:00:00Z,26.4679,-82.0631,1.75,34.11,1111122 
SCCF RECON,ioos:station:SCCF:11:1,2011-05-07T09:00:00Z,26.4679,-82.0631,1.809,34.09,1111122 
SCCF RECON,ioos:station:SCCF:11:1,2011-05-07T10:00:00Z,26.4679,-82.0631,1.819,34.12,1111122 
SCCF RECON,ioos:station:SCCF:11:1,2011-05-07T11:00:00Z,26.4679,-82.0631,1.797,33.93,1111122 
SCCF RECON,ioos:station:SCCF:11:1,2011-05-07T12:00:00Z,26.4679,-82.0631,1.758,33.87,1111122 
SCCF RECON,ioos:station:SCCF:11:1,2011-05-07T13:00:00Z,26.4679,-82.0631,1.739,33.96,1111122 
SCCF RECON,ioos:station:SCCF:11:1,2011-05-07T14:00:00Z,26.4679,-82.0631,1.72,33.92,1111122 
SCCF RECON,ioos:station:SCCF:11:1,2011-05-07T15:00:00Z,26.4679,-82.0631,1.776,33.94,1111122 
SCCF RECON,ioos:station:SCCF:11:1,2011-05-07T16:00:00Z,26.4679,-82.0631,1.859,34.16,1111122 
SCCF RECON,ioos:station:SCCF:11:1,2011-05-07T17:00:00Z,26.4679,-82.0631,1.931,34.2,1111122 
SCCF RECON,ioos:station:SCCF:11:1,2011-05-07T18:00:00Z,26.4679,-82.0631,2.004,34.19,1111122 
SCCF RECON,ioos:station:SCCF:11:1,2011-05-07T19:00:00Z,26.4679,-82.0631,2.05,34.2,1111122 
SCCF RECON,ioos:station:SCCF:11:1,2011-05-07T20:00:00Z,26.4679,-82.0631,2.037,34.18,1111122 
SCCF RECON,ioos:station:SCCF:11:1,2011-05-07T21:00:00Z,26.4679,-82.0631,1.96,34.15,1111122 
SCCF RECON,ioos:station:SCCF:11:1,2011-05-07T22:00:00Z,26.4679,-82.0631,1.851,33.96,1111122 
SCCF RECON,ioos:station:SCCF:11:1,2011-05-07T23:00:00Z,26.4679,-82.0631,1.73,33.89,1111122 
SCCF RECON,ioos:station:SCCF:11:1,2011-05-08T00:00:00Z,26.4679,-82.0631,1.61,33.86,1111122 
SCCF RECON,ioos:station:SCCF:11:1,2011-05-08T01:00:00Z,26.4679,-82.0631,1.49,33.88,1111122 
SCCF RECON,ioos:station:SCCF:11:1,2011-05-08T02:00:00Z,26.4679,-82.0631,1.373,33.89,1111122 
SCCF RECON,ioos:station:SCCF:11:1,2011-05-08T03:00:00Z,26.4679,-82.0631,1.28,33.87,1111122 
SCCF RECON,ioos:station:SCCF:11:1,2011-05-08T04:00:00Z,26.4679,-82.0631,1.26,33.77,1111122 
SCCF RECON,ioos:station:SCCF:11:1,2011-05-08T05:00:00Z,26.4679,-82.0631,1.335,33.85,1111122 
SCCF RECON,ioos:station:SCCF:11:1,2011-05-08T06:00:00Z,26.4679,-82.0631,1.47,33.88,1111122 
SCCF RECON,ioos:station:SCCF:11:1,2011-05-08T07:00:00Z,26.4679,-82.0631,1.591,33.95,1111122 
SCCF RECON,ioos:station:SCCF:11:1,2011-05-08T08:00:00Z,26.4679,-82.0631,1.69,33.92,1111122 
SCCF RECON,ioos:station:SCCF:11:1,2011-05-08T09:00:00Z,26.4679,-82.0631,1.77,33.96,1111122 
SCCF RECON,ioos:station:SCCF:11:1,2011-05-08T10:00:00Z,26.4679,-82.0631,1.81,34.02,1111122 
SCCF RECON,ioos:station:SCCF:11:1,2011-05-08T11:00:00Z,26.4679,-82.0631,1.8,33.95,1111122 
SCCF RECON,ioos:station:SCCF:11:1,2011-05-08T12:00:00Z,26.4679,-82.0631,1.74,34.05,1111122 
SCCF RECON,ioos:station:SCCF:11:1,2011-05-08T13:00:00Z,26.4679,-82.0631,1.709,34.09,1111122 
SCCF RECON,ioos:station:SCCF:11:1,2011-05-08T14:00:00Z,26.4679,-82.0631,1.72,34.1,1111122 
SCCF RECON,ioos:station:SCCF:11:1,2011-05-08T15:00:00Z,26.4679,-82.0631,1.73,34.09,1111122 
SCCF RECON,ioos:station:SCCF:11:1,2011-05-08T16:00:00Z,26.4679,-82.0631,1.76,34.1,1111122 
SCCF RECON,ioos:station:SCCF:11:1,2011-05-08T17:00:00Z,26.4679,-82.0631,1.82,34.16,1111122 
SCCF RECON,ioos:station:SCCF:11:1,2011-05-08T18:00:00Z,26.4679,-82.0631,1.887,34.18,1111122 
SCCF RECON,ioos:station:SCCF:11:1,2011-05-08T19:00:00Z,26.4679,-82.0631,1.949,34.19,1111122 
SCCF RECON,ioos:station:SCCF:11:1,2011-05-08T20:00:00Z,26.4679,-82.0631,1.987,34.16,1111122 
SCCF RECON,ioos:station:SCCF:11:1,2011-05-08T21:00:00Z,26.4679,-82.0631,1.981,34.19,1111122 
SCCF RECON,ioos:station:SCCF:11:1,2011-05-08T22:00:00Z,26.4679,-82.0631,1.915,34.24,1111122 
SCCF RECON,ioos:station:SCCF:11:1,2011-05-08T23:00:00Z,26.4679,-82.0631,1.8,34.19,1111122 
SCCF RECON,ioos:station:SCCF:11:1,2011-05-09T00:00:00Z,26.4679,-82.0631,1.693,34.14,1111122 
SCCF RECON,ioos:station:SCCF:11:1,2011-05-09T01:00:00Z,26.4679,-82.0631,1.59,34.12,1111122 
SCCF RECON,ioos:station:SCCF:11:1,2011-05-09T02:00:00Z,26.4679,-82.0631,1.471,34.08,1111122 
SCCF RECON,ioos:station:SCCF:11:1,2011-05-09T03:00:00Z,26.4679,-82.0631,1.36,34.06,1111122 
SCCF RECON,ioos:station:SCCF:11:1,2011-05-09T04:00:00Z,26.4679,-82.0631,1.28,34.01,1111122 
SCCF RECON,ioos:station:SCCF:11:1,2011-05-09T05:00:00Z,26.4679,-82.0631,1.277,34.03,1111122 
SCCF RECON,ioos:station:SCCF:11:1,2011-05-09T06:00:00Z,26.4679,-82.0631,1.37,34.09,1111122 
SCCF RECON,ioos:station:SCCF:11:1,2011-05-09T07:00:00Z,26.4679,-82.0631,1.5,34.12,1111122 
SCCF RECON,ioos:station:SCCF:11:1,2011-05-09T08:00:00Z,26.4679,-82.0631,1.63,34.13,1111122 
SCCF RECON,ioos:station:SCCF:11:1,2011-05-09T09:00:00Z,26.4679,-82.0631,1.73,34.14,1111122 
SCCF RECON,ioos:station:SCCF:11:1,2011-05-09T10:00:00Z,26.4679,-82.0631,1.81,34.18,1111122 
SCCF RECON,ioos:station:SCCF:11:1,2011-05-09T11:00:00Z,26.4679,-82.0631,1.849,34.2,1111122 
SCCF RECON,ioos:station:SCCF:11:1,2011-05-09T12:00:00Z,26.4679,-82.0631,1.817,34.18,1111122 
SCCF RECON,ioos:station:SCCF:11:1,2011-05-09T13:00:00Z,26.4679,-82.0631,1.75,34.2,1111122 
SCCF RECON,ioos:station:SCCF:11:1,2011-05-09T14:00:00Z,26.4679,-82.0631,1.7,34.21,1111122 
SCCF RECON,ioos:station:SCCF:11:1,2011-05-09T15:00:00Z,26.4679,-82.0631,1.68,34.21,1111122 
SCCF RECON,ioos:station:SCCF:11:1,2011-05-09T16:00:00Z,26.4679,-82.0631,1.69,34.21,1111122 
SCCF RECON,ioos:station:SCCF:11:1,2011-05-09T17:00:00Z,26.4679,-82.0631,1.705,34.24,1111122 
SCCF RECON,ioos:station:SCCF:11:1,2011-05-09T18:00:00Z,26.4679,-82.0631,1.74,34.24,1111122 
SCCF RECON,ioos:station:SCCF:11:1,2011-05-09T19:00:00Z,26.4679,-82.0631,1.8,34.24,1111122 
SCCF RECON,ioos:station:SCCF:11:1,2011-05-09T20:00:00Z,26.4679,-82.0631,1.852,34.24,1111122 
SCCF RECON,ioos:station:SCCF:11:1,2011-05-09T21:00:00Z,26.4679,-82.0631,1.89,34.25,1111122 
SCCF RECON,ioos:station:SCCF:11:1,2011-05-09T22:00:00Z,26.4679,-82.0631,1.91,34.26,1111122 
SCCF RECON,ioos:station:SCCF:11:1,2011-05-09T23:00:00Z,26.4679,-82.0631,1.854,34.27,1111122 
SCCF RECON,ioos:station:SCCF:11:1,2011-05-10T00:00:00Z,26.4679,-82.0631,1.76,34.25,1111122 
SCCF RECON,ioos:station:SCCF:11:1,2011-05-10T01:00:00Z,26.4679,-82.0631,1.68,34.24,1111122 
SCCF RECON,ioos:station:SCCF:11:1,2011-05-10T02:00:00Z,26.4679,-82.0631,1.571,34.24,1111122 
SCCF RECON,ioos:station:SCCF:11:1,2011-05-10T03:00:00Z,26.4679,-82.0631,1.0,-9999.0,1111122 
SCCF RECON,ioos:station:SCCF:11:1,2011-05-10T04:00:00Z,26.4679,-82.0631,1.0,-9999.0,1111122 
SCCF RECON,ioos:station:SCCF:11:1,2011-05-10T05:00:00Z,26.4679,-82.0631,1.0,-9999.0,1111122 
SCCF RECON,ioos:station:SCCF:11:1,2011-05-10T06:00:00Z,26.4679,-82.0631,1.0,-9999.0,1111122 
SCCF RECON,ioos:station:SCCF:11:1,2011-05-10T07:00:00Z,26.4679,-82.0631,1.0,-9999.0,1111122 
SCCF RECON,ioos:station:SCCF:11:1,2011-05-10T08:00:00Z,26.4679,-82.0631,1.0,-9999.0,1111122 
SCCF RECON,ioos:station:SCCF:11:1,2011-05-10T09:00:00Z,26.4679,-82.0631,1.0,-9999.0,1111122 
SCCF RECON,ioos:station:SCCF:11:1,2011-05-10T10:00:00Z,26.4679,-82.0631,1.0,-9999.0,1111122 
SCCF RECON,ioos:station:SCCF:11:1,2011-05-10T11:00:00Z,26.4679,-82.0631,1.0,-9999.0,1111122 
SCCF RECON,ioos:station:SCCF:11:1,2011-05-10T12:00:00Z,26.4679,-82.0631,1.0,-9999.0,1111122 
SCCF RECON,ioos:station:SCCF:11:1,2011-05-10T13:00:00Z,26.4679,-82.0631,1.0,-9999.0,1111122 
SCCF RECON,ioos:station:SCCF:11:1,2011-05-10T14:00:00Z,26.4679,-82.0631,1.0,-9999.0,1111122 
SCCF RECON,ioos:station:SCCF:11:1,2011-05-10T15:00:00Z,26.4679,-82.0631,1.0,-9999.0,1111122 
SCCF RECON,ioos:station:SCCF:11:1,2011-05-10T16:00:00Z,26.4679,-82.0631,1.0,-9999.0,1111122 
SCCF RECON,ioos:station:SCCF:11:1,2011-05-10T17:00:00Z,26.4679,-82.0631,1.0,-9999.0,1111122 
SCCF RECON,ioos:station:SCCF:11:1,2011-05-10T19:00:00Z,26.4679,-82.0631,1.716,34.53,1111122 
SCCF RECON,ioos:station:SCCF:11:1,2011-05-10T20:00:00Z,26.4679,-82.0631,1.769,34.54,1111122 
SCCF RECON,ioos:station:SCCF:11:1,2011-05-10T21:00:00Z,26.4679,-82.0631,1.832,34.51,1111122 
SCCF RECON,ioos:station:SCCF:11:1,2011-05-10T22:00:00Z,26.4679,-82.0631,1.89,34.6,1111122 
SCCF RECON,ioos:station:SCCF:11:1,2011-05-10T23:00:00Z,26.4679,-82.0631,1.9,34.58,1111122 
SCCF RECON,ioos:station:SCCF:11:1,2011-05-11T00:00:00Z,26.4679,-82.0631,1.88,34.65,1111122 
SCCF RECON,ioos:station:SCCF:11:1,2011-05-11T01:00:00Z,26.4679,-82.0631,1.83,34.57,1111122 
SCCF RECON,ioos:station:SCCF:11:1,2011-05-11T02:00:00Z,26.4679,-82.0631,1.73,34.51,1111122 
SCCF RECON,ioos:station:SCCF:11:1,2011-05-11T03:00:00Z,26.4679,-82.0631,1.629,34.49,1111122 
SCCF RECON,ioos:station:SCCF:11:1,2011-05-11T04:00:00Z,26.4679,-82.0631,1.526,34.47,1111122 
SCCF RECON,ioos:station:SCCF:11:1,2011-05-11T05:00:00Z,26.4679,-82.0631,1.433,34.43,1111122 
SCCF RECON,ioos:station:SCCF:11:1,2011-05-11T06:00:00Z,26.4679,-82.0631,1.361,34.44,1111122 
SCCF RECON,ioos:station:SCCF:11:1,2011-05-11T07:00:00Z,26.4679,-82.0631,1.361,34.43,1111122 
SCCF RECON,ioos:station:SCCF:11:1,2011-05-11T08:00:00Z,26.4679,-82.0631,1.46,34.51,1111122 
SCCF RECON,ioos:station:SCCF:11:1,2011-05-11T09:00:00Z,26.4679,-82.0631,1.599,34.57,1111122 
SCCF RECON,ioos:station:SCCF:11:1,2011-05-11T10:00:00Z,26.4679,-82.0631,1.702,34.6,1111122 
SCCF RECON,ioos:station:SCCF:11:1,2011-05-11T11:00:00Z,26.4679,-82.0631,1.8,34.58,1111122 
SCCF RECON,ioos:station:SCCF:11:1,2011-05-11T12:00:00Z,26.4679,-82.0631,1.89,34.59,1111122 
SCCF RECON,ioos:station:SCCF:11:1,2011-05-11T13:00:00Z,26.4679,-82.0631,1.94,34.61,1111122 
SCCF RECON,ioos:station:SCCF:11:1,2011-05-11T14:00:00Z,26.4679,-82.0631,1.949,34.62,1111122 
SCCF RECON,ioos:station:SCCF:11:1,2011-05-11T15:00:00Z,26.4679,-82.0631,1.91,34.66,1111122 
SCCF RECON,ioos:station:SCCF:11:1,2011-05-11T16:00:00Z,26.4679,-82.0631,1.82,34.71,1111122 
SCCF RECON,ioos:station:SCCF:11:1,2011-05-11T17:00:00Z,26.4679,-82.0631,1.73,34.69,1111122 
SCCF RECON,ioos:station:SCCF:11:1,2011-05-11T18:00:00Z,26.4679,-82.0631,1.67,34.65,1111122 
SCCF RECON,ioos:station:SCCF:11:1,2011-05-11T19:00:00Z,26.4679,-82.0631,1.62,34.63,1111122 